tititudorancea.com
Station Historical Data
Daily Summary for August 22, 2018 Units:  Metric    English   Both
« Previous Day
Next Day »
Daily Weekly Monthly Yearly Custom
  High: Low: Average:
Temperature: -17.8 °C 0.3 °C 6.4 °C
Dew Point: -17.8 °C -0.5 °C 3.6 °C
Humidity: Humidity % 62 % 83 %
Wind Speed: 0 km/h 0 km/h 2.9 km/h
Wind Gust: 0 km/h - -
Wind:- - NW
Pressure: 0 hPa 1014.4 hPa -
Precipitation: 0.2 mm    
Historical Graphs
 
 
Ararat weather Find more about Weather in Ararat, AU


 



 


Tabular Data for August 22, 2018
Time Temperature Dew Point Pressure Wind Wind Speed Wind Gust Humidity Rainfall Rate (Hourly)
-17.8 °C -17.8 °C 0 hPa Calm     Humidity % 0 mm
00:04 4.6 °C 3.4 °C 1015.1 hPa North 4.8 km/h 3.1 km/h 92 % 0 mm
00:09 4.5 °C 3.4 °C 1015.1 hPa WSW 5.6 km/h 3.7 km/h 93 % 0 mm
00:14 4.6 °C 3.6 °C 1015.5 hPa North 5.6 km/h 3.5 km/h 93 % 0 mm
00:19 4.8 °C 3.7 °C 1015.5 hPa WSW 3.7 km/h 1.6 km/h 93 % 0 mm
00:24 4.9 °C 4 °C 1015.5 hPa Calm     94 % 0 mm
00:29 4.9 °C 4.1 °C 1015.1 hPa Calm     94 % 0 mm
00:34 5 °C 4.1 °C 1015.5 hPa Calm     94 % 0 mm
00:39 5.1 °C 4.2 °C 1015.5 hPa Calm     94 % 0 mm
00:44 5.2 °C 4.3 °C 1015.5 hPa Calm     94 % 0 mm
00:49 5.3 °C 4.4 °C 1015.5 hPa Calm     94 % 0 mm
00:54 5.4 °C 4.5 °C 1015.5 hPa Calm     94 % 0 mm
00:59 5.4 °C 4.5 °C 1015.1 hPa Calm     94 % 0 mm
01:04 5.4 °C 4.3 °C 1015.1 hPa WSW 1.9 km/h   93 % 0 mm
01:09 5.2 °C 4.2 °C 1015.1 hPa WSW 3.7 km/h 2.7 km/h 93 % 0 mm
01:14 5.1 °C 4 °C 1015.1 hPa Calm     93 % 0 mm
01:19 4.9 °C 3.8 °C 1015.1 hPa WSW 3.7 km/h 0.6 km/h 93 % 0 mm
01:24 4.7 °C 3.7 °C 1015.1 hPa WSW 1.6 km/h   93 % 0 mm
01:29 4.6 °C 3.5 °C 1015.1 hPa North 3.7 km/h 2.3 km/h 93 % 0 mm
01:34 4.4 °C 3.4 °C 1015.1 hPa Calm     93 % 0 mm
01:39 4.4 °C 3.3 °C 1015.1 hPa Calm     93 % 0 mm
01:44 4.3 °C 3.2 °C 1015.1 hPa Calm     93 % 0 mm
01:49 4.1 °C 3.1 °C 1015.1 hPa Calm     93 % 0 mm
01:54 4.1 °C 3 °C 1015.1 hPa Calm     93 % 0 mm
01:59 4.1 °C 3.2 °C 1014.8 hPa Calm     94 % 0 mm
02:04 4 °C 3.1 °C 1014.8 hPa Calm     94 % 0 mm
02:09 3.9 °C 2.8 °C 1014.8 hPa Calm     93 % 0 mm
02:14 3.8 °C 2.7 °C 1014.8 hPa Calm     93 % 0 mm
02:19 3.6 °C 2.6 °C 1014.8 hPa Calm     93 % 0 mm
02:24 3.4 °C 2.4 °C 1014.8 hPa Calm     93 % 0 mm
02:29 3.3 °C 2.3 °C 1014.8 hPa Calm     93 % 0 mm
02:34 3.2 °C 2.2 °C 1014.4 hPa Calm     93 % 0 mm
02:39 3.1 °C 2.1 °C 1014.4 hPa Calm     93 % 0 mm
02:44 3 °C 2 °C 1014.4 hPa Calm     93 % 0 mm
02:49 2.8 °C 1.8 °C 1014.4 hPa Calm     93 % 0 mm
02:54 2.7 °C 1.8 °C 1014.4 hPa Calm     94 % 0 mm
02:59 2.6 °C 1.7 °C 1014.4 hPa Calm     94 % 0 mm
03:04 2.6 °C 1.7 °C 1014.4 hPa Calm     94 % 0 mm
03:09 2.4 °C 1.6 °C 1014.4 hPa Calm     94 % 0 mm
03:14 2.3 °C 1.4 °C 1014.4 hPa Calm     94 % 0 mm
03:19 2.3 °C 1.4 °C 1014.4 hPa Calm     94 % 0 mm
03:24 2.3 °C 1.4 °C 1014.4 hPa Calm     94 % 0 mm
03:29 2.4 °C 1.6 °C 1014.4 hPa Calm     94 % 0 mm
03:34 2.4 °C 1.5 °C 1014.4 hPa Calm     94 % 0 mm
03:39 2.2 °C 1.3 °C 1014.4 hPa Calm     94 % 0 mm
03:44 2 °C 1 °C 1014.4 hPa Calm     93 % 0 mm
03:49 1.8 °C 0.8 °C 1014.4 hPa Calm     93 % 0 mm
03:54 1.7 °C 0.7 °C 1014.4 hPa Calm     93 % 0 mm
03:59 1.6 °C 0.7 °C 1014.4 hPa Calm     94 % 0 mm
04:04 1.5 °C 0.7 °C 1014.4 hPa Calm     94 % 0 mm
04:09 1.4 °C 0.6 °C 1014.4 hPa Calm     94 % 0 mm
04:14 1.3 °C 0.4 °C 1014.4 hPa Calm     94 % 0 mm
04:19 1.1 °C 0.3 °C 1014.4 hPa Calm     94 % 0 mm
04:24 1.1 °C 0.2 °C 1014.4 hPa North 1.6 km/h 1.4 km/h 94 % 0 mm
04:29 1.1 °C 0.2 °C 1014.4 hPa Calm     94 % 0 mm
04:34 1.1 °C 0.2 °C 1014.4 hPa WSW 3.7 km/h 2.1 km/h 94 % 0 mm
04:39 1 °C 0.2 °C 1014.4 hPa WSW 3.7 km/h 2.7 km/h 94 % 0 mm
04:44 1 °C 0.2 °C 1014.4 hPa WSW 3.7 km/h 2.1 km/h 94 % 0 mm
04:49 1.1 °C 0.4 °C 1014.4 hPa WSW 1.9 km/h   95 % 0 mm
04:54 1.2 °C 0.5 °C 1014.4 hPa Calm     95 % 0 mm
04:59 1.3 °C 0.6 °C 1014.4 hPa Calm     95 % 0 mm
05:04 1.4 °C 0.7 °C 1014.4 hPa Calm     95 % 0 mm
05:09 1.4 °C 0.6 °C 1014.4 hPa Calm     94 % 0 mm
05:14 1.4 °C 0.6 °C 1014.8 hPa Calm     94 % 0 mm
05:19 1.4 °C 0.6 °C 1014.8 hPa WSW 3.2 km/h 0.6 km/h 94 % 0 mm
05:24 1.4 °C 0.6 °C 1014.8 hPa Calm     94 % 0 mm
05:29 1.3 °C 0.4 °C 1014.8 hPa Calm     94 % 0 mm
05:34 1.2 °C 0.3 °C 1014.8 hPa Calm     94 % 0 mm
05:39 1.1 °C 0.3 °C 1014.8 hPa WSW 3.7 km/h 2.4 km/h 94 % 0 mm
05:44 1 °C 0.2 °C 1014.8 hPa Calm     94 % 0 mm
05:49 0.9 °C 0.1 °C 1014.8 hPa Calm     94 % 0 mm
05:54 0.9 °C 0.1 °C 1015.1 hPa Calm     94 % 0 mm
05:59 0.8 °C 0 °C 1015.1 hPa WSW 3.7 km/h 0.5 km/h 94 % 0 mm
06:04 0.8 °C 0.1 °C 1015.1 hPa Calm     95 % 0 mm
06:09 0.8 °C 0.1 °C 1015.1 hPa Calm     95 % 0 mm
06:14 0.7 °C -0.1 °C 1015.1 hPa Calm     94 % 0 mm
06:19 0.6 °C -0.2 °C 1015.5 hPa Calm     94 % 0 mm
06:24 0.6 °C -0.1 °C 1015.5 hPa WSW 1.9 km/h   95 % 0 mm
06:29 0.6 °C -0.2 °C 1015.5 hPa Calm     95 % 0 mm
06:34 0.4 °C -0.3 °C 1015.5 hPa Calm     95 % 0 mm
06:39 0.4 °C -0.3 °C 1015.5 hPa Calm     95 % 0.2 mm
06:44 0.3 °C -0.5 °C 1015.5 hPa Calm     94 % 0.2 mm
06:49 0.3 °C -0.4 °C 1015.5 hPa Calm     95 % 0.2 mm
06:54 0.3 °C -0.4 °C 1015.8 hPa Calm     95 % 0.2 mm
06:59 0.3 °C -0.4 °C 1015.8 hPa Calm     95 % 0.2 mm
07:04 0.3 °C -0.4 °C 1015.8 hPa WSW 3.2 km/h 1.9 km/h 95 % 0.2 mm
07:09 0.4 °C -0.3 °C 1015.8 hPa Calm     95 % 0.2 mm
07:14 0.4 °C -0.3 °C 1015.8 hPa Calm     95 % 0.2 mm
07:19 0.4 °C -0.3 °C 1016.1 hPa Calm     95 % 0.2 mm
07:24 0.5 °C -0.2 °C 1016.1 hPa Calm     95 % 0.2 mm
07:29 0.6 °C -0.1 °C 1016.1 hPa Calm     95 % 0.2 mm
07:34 0.8 °C 0.1 °C 1016.1 hPa Calm     95 % 0.2 mm
07:39 0.8 °C 0.1 °C 1016.1 hPa Calm     95 % 0 mm
07:44 1 °C 0.3 °C 1016.1 hPa WSW 3.2 km/h 1 km/h 95 % 0 mm
07:49 1.1 °C 0.4 °C 1016.1 hPa WSW 1.9 km/h   95 % 0 mm
07:54 1.2 °C 0.4 °C 1016.5 hPa Calm     95 % 0 mm
07:59 1.3 °C 0.6 °C 1016.5 hPa Calm     95 % 0 mm
08:04 1.4 °C 0.7 °C 1016.5 hPa WSW 1.9 km/h   95 % 0 mm
08:09 1.6 °C 1.1 °C 1016.5 hPa WSW 1.9 km/h   96 % 0 mm
08:14 1.9 °C 1.3 °C 1016.5 hPa WSW 3.7 km/h 1.9 km/h 96 % 0 mm
08:19 2.2 °C 1.7 °C 1016.5 hPa North 3.2 km/h 1.1 km/h 96 % 0 mm
08:24 2.7 °C 2.1 °C 1016.5 hPa WSW 3.7 km/h 1.8 km/h 96 % 0 mm
08:29 3.1 °C 2.6 °C 1016.5 hPa Calm     96 % 0 mm
08:34 3.7 °C 3.2 °C 1016.5 hPa WSW 1.9 km/h   96 % 0 mm
08:39 4.5 °C 4.1 °C 1016.5 hPa WSW 3.7 km/h 0.2 km/h 97 % 0 mm
08:44 5.1 °C 4.6 °C 1016.5 hPa Calm     97 % 0 mm
08:49 5.5 °C 5.1 °C 1016.8 hPa WSW 3.7 km/h 2.1 km/h 97 % 0 mm
08:54 5.4 °C 4.9 °C 1016.5 hPa WSW 1.9 km/h 0.2 km/h 97 % 0 mm
08:59 5.4 °C 4.8 °C 1016.5 hPa WSW 3.2 km/h 1.8 km/h 96 % 0 mm
09:04 5.4 °C 4.8 °C 1016.5 hPa WSW 5.6 km/h 1.8 km/h 96 % 0 mm
09:09 5.7 °C 5.1 °C 1016.8 hPa WSW 5.6 km/h 3.7 km/h 96 % 0 mm
09:14 6 °C 5.4 °C 1016.8 hPa WSW 5.6 km/h 1.6 km/h 96 % 0 mm
09:19 6.3 °C 5.7 °C 1016.5 hPa WSW 5.6 km/h 3.4 km/h 96 % 0 mm
09:24 6.6 °C 6 °C 1016.5 hPa WSW 5.6 km/h 4 km/h 96 % 0 mm
09:29 6.8 °C 6.2 °C 1016.5 hPa WSW 5.6 km/h 4 km/h 96 % 0 mm
09:34 7.1 °C 6.4 °C 1016.5 hPa WSW 7.4 km/h 3.9 km/h 96 % 0 mm
09:39 7.2 °C 6.6 °C 1016.5 hPa WSW 7.4 km/h 6.1 km/h 96 % 0 mm
09:44 7.4 °C 6.7 °C 1016.5 hPa WSW 5.6 km/h 4.8 km/h 95 % 0 mm
09:49 7.6 °C 6.9 °C 1016.5 hPa WSW 5.6 km/h 2.3 km/h 95 % 0 mm
09:54 7.9 °C 7 °C 1016.5 hPa WSW 5.6 km/h 4.2 km/h 94 % 0 mm
09:59 8.1 °C 6.9 °C 1016.5 hPa West 9.3 km/h 9 km/h 92 % 0 mm
10:04 8.2 °C 6.7 °C 1016.5 hPa West 8 km/h 4.2 km/h 90 % 0 mm
10:09 8.7 °C 7 °C 1016.5 hPa West 4.8 km/h 1.8 km/h 89 % 0 mm
10:14 9.2 °C 7.1 °C 1016.5 hPa West 9.7 km/h 5.6 km/h 87 % 0 mm
10:19 9.4 °C 6.8 °C 1016.5 hPa West 9.3 km/h 6.4 km/h 84 % 0 mm
10:24 9.5 °C 6.6 °C 1016.5 hPa North 5.6 km/h 4.7 km/h 82 % 0 mm
10:29 9.7 °C 6.6 °C 1016.5 hPa West 7.4 km/h 5 km/h 81 % 0 mm
10:34 9.9 °C 6.4 °C 1016.5 hPa West 3.7 km/h 2.1 km/h 79 % 0 mm
10:39 10.4 °C 6.9 °C 1016.5 hPa West 3.7 km/h 2.7 km/h 79 % 0 mm
10:44 10.7 °C 6.6 °C 1016.5 hPa West 5.6 km/h 3.4 km/h 76 % 0 mm
10:49 10.9 °C 6.6 °C 1016.5 hPa West 5.6 km/h 1.9 km/h 75 % 0 mm
10:54 11.2 °C 6.5 °C 1016.5 hPa West 6.4 km/h 2.1 km/h 73 % 0 mm
10:59 10.8 °C 5.7 °C 1016.5 hPa West 5.6 km/h 1 km/h 71 % 0 mm
11:04 11.1 °C 6.2 °C 1016.5 hPa North 5.6 km/h 2.7 km/h 72 % 0 mm
11:09 11.3 °C 6.3 °C 1016.5 hPa West 3.7 km/h 0.6 km/h 71 % 0 mm
11:14 11.6 °C 6.1 °C 1016.1 hPa West 9.3 km/h 5 km/h 69 % 0 mm
11:19 11.5 °C 6.2 °C 1016.1 hPa West 9.3 km/h 3.5 km/h 70 % 0 mm
11:24 11.7 °C 5.9 °C 1016.1 hPa NW 13 km/h 4.3 km/h 68 % 0 mm
11:29 11.8 °C 5.8 °C 1016.1 hPa NNW 9.7 km/h 6.1 km/h 67 % 0 mm
11:34 12 °C 5.8 °C 1016.1 hPa North 7.4 km/h 2.3 km/h 66 % 0 mm
11:39 11.9 °C 5.8 °C 1016.1 hPa NNW 5.6 km/h 3.2 km/h 66 % 0 mm
11:44 11.7 °C 6 °C 1015.8 hPa NNW 9.3 km/h 5.5 km/h 68 % 0 mm
11:49 11.1 °C 5.8 °C 1015.8 hPa North 5.6 km/h 3.5 km/h 70 % 0 mm
11:54 10.7 °C 5.8 °C 1015.8 hPa NNW 5.6 km/h 3.1 km/h 72 % 0 mm
11:59 10.4 °C 5.8 °C 1015.8 hPa NNW 3.7 km/h 2.7 km/h 73 % 0 mm
12:04 10.4 °C 5.8 °C 1015.8 hPa North 6.4 km/h 3.4 km/h 73 % 0 mm
12:09 10.4 °C 5.6 °C 1015.8 hPa NNW 5.6 km/h 2.6 km/h 72 % 0 mm
12:14 10.3 °C 5.7 °C 1015.8 hPa NNW 1.9 km/h   73 % 0 mm
12:19 10.5 °C 5.9 °C 1015.5 hPa NNW 5.6 km/h 3.1 km/h 73 % 0 mm
12:24 10.7 °C 5.9 °C 1015.5 hPa NNW 1.9 km/h 1.6 km/h 72 % 0 mm
12:29 10.8 °C 5.8 °C 1015.5 hPa NNW 5.6 km/h 5.1 km/h 71 % 0 mm
12:34 10.9 °C 5.8 °C 1015.5 hPa NNW 5.6 km/h 1.9 km/h 71 % 0 mm
12:39 11.1 °C 5.8 °C 1015.5 hPa North 3.7 km/h 2.4 km/h 70 % 0 mm
12:44 11.7 °C 6.6 °C 1015.1 hPa NNW 3.7 km/h 1.3 km/h 71 % 0 mm
12:49 12.3 °C 6.6 °C 1015.1 hPa North 3.7 km/h 2.7 km/h 68 % 0 mm
12:54 12.6 °C 6.2 °C 1015.1 hPa North 7.4 km/h 6 km/h 65 % 0 mm
12:59 12.2 °C 5.8 °C 1015.1 hPa NNW 9.7 km/h 7.4 km/h 65 % 0 mm
13:04 11.7 °C 5.6 °C 1015.1 hPa NNW 5.6 km/h 0.6 km/h 66 % 0 mm
13:09 11.7 °C 5.5 °C 1015.1 hPa North 9.3 km/h 7.1 km/h 66 % 0 mm
13:14 11.4 °C 5.5 °C 1015.1 hPa NNW 9.7 km/h 10.1 km/h 67 % 0 mm
13:19 11.4 °C 5.7 °C 1015.1 hPa NNW 3.7 km/h 2.3 km/h 68 % 0 mm
13:24 11.4 °C 5.5 °C 1014.8 hPa NNW 11.1 km/h 8 km/h 67 % 0 mm
13:29 11.3 °C 5.4 °C 1014.8 hPa NNW 7.4 km/h 3.4 km/h 67 % 0 mm
13:34 11.3 °C 4.9 °C 1014.8 hPa NNW 7.4 km/h 4.2 km/h 65 % 0 mm
13:39 11.3 °C 5.2 °C 1014.8 hPa NNW 6.4 km/h 5.1 km/h 66 % 0 mm
13:44 11.3 °C 5.2 °C 1014.8 hPa NNW 9.3 km/h 2.7 km/h 66 % 0 mm
13:49 11.4 °C 5.3 °C 1014.8 hPa NNW 9.3 km/h 3.7 km/h 66 % 0 mm
13:54 11.4 °C 5.5 °C 1014.4 hPa NNW 9.7 km/h 6.9 km/h 67 % 0 mm
13:59 11.4 °C 5.5 °C 1014.4 hPa NNW 5.6 km/h 4.7 km/h 67 % 0 mm
14:04 11.7 °C 5.7 °C 1014.4 hPa NNW 5.6 km/h 2.4 km/h 67 % 0 mm
14:09 11.8 °C 5.2 °C 1014.4 hPa North 9.3 km/h 7.4 km/h 64 % 0 mm
14:14 11.7 °C 5.1 °C 1014.4 hPa NNW 7.4 km/h 6 km/h 64 % 0 mm
14:19 11.5 °C 5.2 °C 1014.4 hPa NNW 5.6 km/h 3.7 km/h 65 % 0 mm
14:24 11.4 °C 4.9 °C 1014.4 hPa NNW 5.6 km/h 4 km/h 64 % 0 mm
14:29 11.4 °C 4.9 °C 1014.4 hPa NNW 5.6 km/h 3.2 km/h 64 % 0 mm
14:34 11.5 °C 5.4 °C 1014.4 hPa NNW 4.8 km/h 2.7 km/h 66 % 0 mm
14:39 11.6 °C 5.2 °C 1014.4 hPa North 3.7 km/h 2.3 km/h 65 % 0 mm
14:44 11.7 °C 5.5 °C 1014.4 hPa North 3.7 km/h 0.2 km/h 66 % 0 mm
14:49 11.8 °C 5.4 °C 1014.4 hPa NNW 1.9 km/h   65 % 0 mm
14:54 11.8 °C 5.4 °C 1014.4 hPa Calm     65 % 0 mm
14:59 11.8 °C 5.4 °C 1014.4 hPa Calm     65 % 0 mm
15:04 11.8 °C 5.4 °C 1014.4 hPa North 4.8 km/h 3.5 km/h 65 % 0 mm
15:09 11.7 °C 5.1 °C 1014.4 hPa Calm     64 % 0 mm
15:14 11.7 °C 5.1 °C 1014.4 hPa Calm     64 % 0 mm
15:19 11.8 °C 5.2 °C 1014.4 hPa North 1.6 km/h 1.1 km/h 64 % 0 mm
15:24 11.7 °C 5.1 °C 1014.4 hPa NNW 1.9 km/h   64 % 0 mm
15:29 11.6 °C 4.6 °C 1014.4 hPa NNW 5.6 km/h 2.1 km/h 62 % 0 mm
15:34 11.6 °C 4.8 °C 1014.4 hPa NNW 4.8 km/h 3.1 km/h 63 % 0 mm
15:39 11.6 °C 5 °C 1014.4 hPa North 3.7 km/h 3.1 km/h 64 % 0 mm
15:44 11.6 °C 5 °C 1014.4 hPa North 9.3 km/h 7.1 km/h 64 % 0 mm
15:49 11.6 °C 5.2 °C 1014.4 hPa NNW 5.6 km/h 3.5 km/h 65 % 0 mm
15:54 11.7 °C 5.3 °C 1014.4 hPa North 5.6 km/h 2.4 km/h 65 % 0 mm
15:59 11.7 °C 5.1 °C 1014.4 hPa NNW 9.3 km/h 3.1 km/h 64 % 0 mm
16:04 11.7 °C 5.1 °C 1014.4 hPa NNW 8 km/h 5.8 km/h 64 % 0 mm
16:09 11.7 °C 5.1 °C 1014.4 hPa North 5.6 km/h 3.2 km/h 64 % 0 mm
16:14 11.8 °C 5.2 °C 1014.4 hPa NNW 7.4 km/h 2.1 km/h 64 % 0 mm
16:19 11.8 °C 5.2 °C 1014.8 hPa NNW 6.4 km/h 5.1 km/h 64 % 0 mm
16:24 11.8 °C 4.9 °C 1014.4 hPa North 5.6 km/h 3.5 km/h 63 % 0 mm
16:29 11.8 °C 4.9 °C 1014.8 hPa NNW 5.6 km/h 4 km/h 63 % 0 mm
16:34 11.8 °C 4.9 °C 1014.8 hPa NNW 5.6 km/h 2.7 km/h 63 % 0 mm
16:39 11.7 °C 4.9 °C 1014.8 hPa North 5.6 km/h 3.7 km/h 63 % 0 mm
16:44 11.7 °C 4.6 °C 1014.8 hPa NNW 7.4 km/h 5.3 km/h 62 % 0 mm
16:49 11.6 °C 4.6 °C 1014.8 hPa North 5.6 km/h 1.6 km/h 62 % 0 mm
16:54 11.6 °C 4.5 °C 1014.8 hPa NNW 5.6 km/h 2.7 km/h 62 % 0 mm
16:59 11.6 °C 4.5 °C 1014.8 hPa NNW 7.4 km/h 1.4 km/h 62 % 0 mm
17:04 11.6 °C 4.7 °C 1014.8 hPa NNW 5.6 km/h 2.6 km/h 63 % 0 mm
17:09 11.6 °C 4.7 °C 1015.1 hPa NNW 5.6 km/h 5.6 km/h 63 % 0 mm
17:14 11.6 °C 5 °C 1015.1 hPa NNW 3.7 km/h 0.8 km/h 64 % 0 mm
17:19 11.6 °C 5.2 °C 1014.8 hPa NNW 5.6 km/h 0.3 km/h 65 % 0 mm
17:24 11.6 °C 5.2 °C 1014.8 hPa NNW 5.6 km/h 2.3 km/h 65 % 0 mm
17:29 11.5 °C 5.4 °C 1015.1 hPa NNW 7.4 km/h 3.1 km/h 66 % 0 mm
17:34 11.5 °C 5.4 °C 1015.1 hPa North 4.8 km/h 2.4 km/h 66 % 0 mm
17:39 11.4 °C 5.3 °C 1015.1 hPa NNW 5.6 km/h 4.8 km/h 66 % 0 mm
17:44 11.3 °C 5.2 °C 1015.1 hPa NNW 6.4 km/h 1.9 km/h 66 % 0 mm
17:49 11.2 °C 5.3 °C 1015.1 hPa North 5.6 km/h   67 % 0 mm
17:54 11.1 °C 5.4 °C 1015.1 hPa Calm     68 % 0 mm
17:59 11 °C 5.3 °C 1015.1 hPa NNW 5.6 km/h 0.2 km/h 68 % 0 mm
18:04 10.9 °C 5.2 °C 1015.1 hPa Calm     68 % 0 mm
18:09 10.8 °C 5.3 °C 1015.1 hPa Calm     69 % 0 mm
18:14 10.7 °C 5.4 °C 1015.1 hPa Calm     70 % 0 mm
18:19 10.6 °C 5.6 °C 1015.5 hPa Calm     71 % 0 mm
18:24 10.4 °C 5.3 °C 1015.5 hPa Calm     71 % 0 mm
18:29 10.1 °C 5.3 °C 1015.5 hPa Calm     72 % 0 mm
18:34 9.9 °C 5.1 °C 1015.5 hPa Calm     72 % 0 mm
18:39 9.8 °C 5.2 °C 1015.8 hPa Calm     73 % 0 mm
18:44 9.7 °C 5.1 °C 1015.8 hPa Calm     73 % 0 mm
18:49 9.4 °C 4.8 °C 1015.8 hPa Calm     73 % 0 mm
18:54 9 °C 4.6 °C 1015.8 hPa Calm     74 % 0 mm
18:59 8.7 °C 4.7 °C 1015.8 hPa Calm     76 % 0 mm
19:04 8.3 °C 4.6 °C 1015.8 hPa Calm     77 % 0 mm
19:09 8.1 °C 4.4 °C 1015.8 hPa Calm     78 % 0 mm
19:14 7.8 °C 4.4 °C 1015.8 hPa Calm     79 % 0 mm
19:19 7.6 °C 4.3 °C 1015.8 hPa Calm     80 % 0 mm
19:24 7.4 °C 4.3 °C 1015.8 hPa Calm   0.2 km/h 81 % 0 mm
19:29 7.2 °C 4.2 °C 1015.8 hPa Calm     81 % 0 mm
19:34 7.1 °C 4.2 °C 1016.1 hPa Calm     82 % 0 mm
19:39 6.9 °C 4.3 °C 1016.1 hPa NNW 3.7 km/h 2.3 km/h 83 % 0 mm
19:44 6.9 °C 4.4 °C 1016.1 hPa NNW 5.6 km/h 2.6 km/h 84 % 0 mm
19:49 7 °C 4.7 °C 1016.1 hPa NNW 1.9 km/h   85 % 0 mm
19:54 7 °C 4.7 °C 1016.1 hPa Calm     85 % 0 mm
19:59 6.9 °C 4.4 °C 1016.1 hPa Calm     84 % 0 mm
20:04 6.7 °C 4.2 °C 1016.1 hPa Calm     84 % 0 mm
20:09 6.4 °C 4.1 °C 1016.1 hPa Calm     85 % 0 mm
20:14 6.2 °C 3.9 °C 1016.1 hPa Calm     85 % 0 mm
20:19 6.1 °C 3.9 °C 1016.1 hPa Calm     86 % 0 mm
20:24 5.9 °C 3.7 °C 1016.1 hPa Calm     86 % 0 mm
20:29 5.7 °C 3.5 °C 1016.5 hPa Calm     86 % 0 mm
20:34 5.5 °C 3.3 °C 1016.5 hPa Calm     86 % 0 mm
20:39 5.3 °C 3.1 °C 1016.5 hPa Calm     86 % 0 mm
20:44 5.1 °C 3.1 °C 1016.5 hPa Calm     87 % 0 mm
20:49 5 °C 3 °C 1016.5 hPa Calm     87 % 0 mm
20:54 5 °C 3.2 °C 1016.5 hPa Calm     88 % 0 mm
20:59 5 °C 3.3 °C 1016.5 hPa Calm     89 % 0 mm
21:04 4.9 °C 4.1 °C 1016.5 hPa Calm     94 % 0 mm
21:09 4.8 °C 3.1 °C 1016.5 hPa Calm     89 % 0 mm
21:14 4.7 °C 3.1 °C 1016.5 hPa Calm     89 % 0 mm
21:19 4.7 °C 3 °C 1016.5 hPa North 1.9 km/h 0.3 km/h 89 % 0 mm
21:24 4.7 °C 3.2 °C 1016.5 hPa NNW 3.7 km/h 0.6 km/h 90 % 0 mm
21:29 4.8 °C 3.5 °C 1016.8 hPa NNW 1.9 km/h   91 % 0 mm
21:34 4.8 °C 3.3 °C 1016.5 hPa Calm     90 % 0 mm
21:39 4.7 °C 3.2 °C 1016.5 hPa Calm     90 % 0 mm
21:44 4.6 °C 3.1 °C 1016.5 hPa Calm     90 % 0 mm
21:49 4.6 °C 3.1 °C 1016.5 hPa Calm     90 % 0 mm
21:54 4.6 °C 3.3 °C 1016.8 hPa Calm     91 % 0 mm
21:59 4.6 °C 3.3 °C 1016.8 hPa Calm     91 % 0 mm
22:04 4.7 °C 3.3 °C 1016.8 hPa Calm     91 % 0 mm
22:09 4.6 °C 3.1 °C 1016.8 hPa Calm     90 % 0 mm
22:14 4.4 °C 3.1 °C 1016.8 hPa Calm     91 % 0 mm
22:19 4.4 °C 3.1 °C 1016.8 hPa Calm     91 % 0 mm
22:24 4.4 °C 3.1 °C 1016.8 hPa Calm     91 % 0 mm
22:29 4.5 °C 3.3 °C 1016.8 hPa Calm     92 % 0 mm
22:34 4.7 °C 3.5 °C 1016.8 hPa Calm     92 % 0 mm
22:39 4.7 °C 3.6 °C 1016.8 hPa Calm     92 % 0 mm
22:44 4.6 °C 3.3 °C 1016.8 hPa Calm     91 % 0 mm
22:49 4.4 °C 3.1 °C 1016.8 hPa Calm     91 % 0 mm
22:54 4.2 °C 2.9 °C 1016.8 hPa NNW 1.9 km/h   91 % 0 mm
22:59 4.2 °C 2.9 °C 1016.8 hPa NNW 3.2 km/h 1.1 km/h 91 % 0 mm
23:04 4.4 °C 3.3 °C 1016.8 hPa NNW 3.7 km/h 2.1 km/h 92 % 0 mm
23:09 4.6 °C 3.4 °C 1016.8 hPa North 5.6 km/h 2.7 km/h 92 % 0 mm
23:14 4.8 °C 3.6 °C 1016.8 hPa NNW 5.6 km/h 1.6 km/h 92 % 0 mm
23:19 4.9 °C 3.7 °C 1016.8 hPa North 5.6 km/h 1 km/h 92 % 0 mm
23:24 4.9 °C 3.6 °C 1016.8 hPa NNW 3.7 km/h 2.6 km/h 91 % 0 mm
23:29 5 °C 3.8 °C 1016.8 hPa NNW 5.6 km/h 3.4 km/h 92 % 0 mm
23:34 5.2 °C 3.8 °C 1016.5 hPa NNW 5.6 km/h 2.7 km/h 91 % 0 mm
23:39 5.3 °C 3.9 °C 1016.8 hPa North 5.6 km/h 3.2 km/h 91 % 0 mm
23:44 5.3 °C 3.8 °C 1016.8 hPa NNW 5.6 km/h 3.7 km/h 90 % 0 mm
23:49 5.4 °C 3.9 °C 1016.5 hPa NNW 3.7 km/h 0.8 km/h 90 % 0 mm
23:54 5.4 °C 3.9 °C 1016.8 hPa NNW 3.7 km/h 4.2 km/h 90 % 0 mm
23:59 5.6 °C 4.1 °C 1016.5 hPa North 5.6 km/h 3.7 km/h 90 % 0 mm
Ararat Weather
Compliments of Weather Underground - 2.25 mb
Click here to send mail.


ABOUT

Live weather data from Ararat, Victoria, Australia, 3377
Data uploaded from Cumulus every 5 minutes to Weather Underground.
This site then downloads the raw data for formatting and display.
Metric and imperial data can be displayed. Graphs and historical data available.
Includes Sun and Moon times and rain image live from BOM.

Check out Ararat Weather on Facebook, Twitter and Google +

Help support ongoing costs by checking out the ads





Follow @AraratWeather